TimePST,TemperatureF,Dew PointF,Humidity,Sea Level PressureIn,VisibilityMPH,Wind Direction,Wind SpeedMPH,Gust SpeedMPH,PrecipitationIn,Events,Conditions,WindDirDegrees,DateUTC
12:53 AM,41.0,37.0,86,30.06,10.0,SSW,8.1,-,N/A,,Overcast,200,2013-01-27 08:53:00
1:53 AM,41.0,37.9,89,30.06,10.0,SSW,9.2,-,N/A,,Overcast,200,2013-01-27 09:53:00
2:20 AM,41.0,37.4,87,30.03,7.0,South,8.1,-,0.00,Rain,Light Rain,180,2013-01-27 10:20:00
2:53 AM,41.0,37.9,89,30.06,10.0,South,6.9,-,0.00,,Overcast,180,2013-01-27 10:53:00
3:41 AM,41.0,37.4,87,30.03,10.0,SW,8.1,-,0.01,,Overcast,230,2013-01-27 11:41:00
3:53 AM,39.9,37.9,93,30.06,5.0,WSW,6.9,-,0.01,Rain,Light Rain,240,2013-01-27 11:53:00
4:32 AM,39.2,39.2,100,30.03,5.0,SSW,5.8,-,0.01,Rain,Light Rain,210,2013-01-27 12:32:00
4:53 AM,39.9,39.0,97,30.06,5.0,SSW,4.6,-,0.01,,Overcast,210,2013-01-27 12:53:00
5:34 AM,39.2,37.4,93,30.03,10.0,WSW,4.6,-,N/A,,Overcast,240,2013-01-27 13:34:00
5:53 AM,39.9,37.9,93,30.06,10.0,Calm,Calm,-,N/A,,Overcast,0,2013-01-27 13:53:00
6:53 AM,39.9,37.0,89,30.06,10.0,SW,6.9,-,N/A,,Overcast,230,2013-01-27 14:53:00
7:53 AM,39.9,36.0,86,30.06,10.0,SSW,8.1,-,N/A,,Overcast,210,2013-01-27 15:53:00
8:12 AM,39.2,37.4,93,30.04,10.0,South,9.2,-,N/A,,Overcast,190,2013-01-27 16:12:00
8:53 AM,41.0,37.0,86,30.08,10.0,SSW,11.5,-,N/A,,Overcast,200,2013-01-27 16:53:00
9:16 AM,41.0,37.4,87,30.05,10.0,SSW,11.5,-,N/A,,Overcast,200,2013-01-27 17:16:00
9:53 AM,41.0,37.0,86,30.08,10.0,SSW,13.8,-,N/A,,Overcast,200,2013-01-27 17:53:00
10:35 AM,41.0,37.4,87,30.06,10.0,South,12.7,-,0.00,Rain,Light Rain,190,2013-01-27 18:35:00
10:53 AM,41.0,37.9,89,30.09,10.0,South,11.5,-,0.01,Rain,Light Rain,190,2013-01-27 18:53:00
11:07 AM,41.0,37.4,87,30.06,10.0,SSW,10.4,-,0.00,Rain,Light Rain,200,2013-01-27 19:07:00
11:53 AM,41.0,37.0,86,30.07,10.0,South,16.1,-,0.00,,Overcast,190,2013-01-27 19:53:00
12:53 PM,39.9,37.0,89,30.05,10.0,SSW,13.8,21.9,0.00,Rain,Light Rain,200,2013-01-27 20:53:00
1:53 PM,41.0,37.0,86,30.03,10.0,SSW,16.1,23.0,0.00,,Overcast,200,2013-01-27 21:53:00
2:53 PM,41.0,37.0,86,30.03,10.0,South,13.8,-,0.01,Rain,Light Rain,190,2013-01-27 22:53:00
3:08 PM,39.2,37.4,93,30.00,10.0,South,13.8,-,0.00,Rain,Light Rain,180,2013-01-27 23:08:00
3:53 PM,39.9,37.0,89,30.02,10.0,South,12.7,-,0.00,Rain,Light Rain,180,2013-01-27 23:53:00
4:48 PM,39.2,37.4,93,29.99,10.0,South,10.4,-,0.01,,Overcast,180,2013-01-28 00:48:00
4:53 PM,39.9,37.0,89,30.02,10.0,South,9.2,-,0.01,,Overcast,180,2013-01-28 00:53:00
5:18 PM,39.2,37.4,93,29.99,10.0,SSW,10.4,-,N/A,,Overcast,200,2013-01-28 01:18:00
5:53 PM,39.9,36.0,86,30.02,10.0,SSW,12.7,-,N/A,,Overcast,200,2013-01-28 01:53:00
6:53 PM,39.9,36.0,86,30.02,10.0,SSW,10.4,-,N/A,,Overcast,200,2013-01-28 02:53:00
7:53 PM,39.9,36.0,86,30.04,10.0,SSW,10.4,-,0.00,,Overcast,200,2013-01-28 03:53:00
8:53 PM,39.0,36.0,89,30.03,10.0,South,9.2,-,0.00,,Overcast,180,2013-01-28 04:53:00
9:46 PM,39.2,35.6,87,30.00,10.0,South,10.4,-,0.01,,Overcast,190,2013-01-28 05:46:00
9:53 PM,39.0,36.0,89,30.03,10.0,South,10.4,-,0.01,,Overcast,190,2013-01-28 05:53:00
10:53 PM,39.0,37.0,93,30.02,6.0,South,9.2,-,0.01,,Overcast,190,2013-01-28 06:53:00
11:53 PM,39.0,37.0,93,30.03,4.0,South,9.2,-,N/A,,Overcast,190,2013-01-28 07:53:00